CW5988 Weather Reports


Display with metric or nautical units.
time (UTC)temp
F
wind
direction
speed
MPH
gust
MPH
rain 1hr
in
rain 24hr
in
rain mn
in
humidity
%
barometer
mb
20260906073924 59 292 8.0 17.0 0.00 0.00 0.00 84 1014.3
20260906073431 59 273 10.0 17.0 0.00 0.00 0.00 84 1014.3
20260906072937 59 249 9.0 18.0 0.00 0.00 0.00 84 1014.3
20260906072440 59 282 12.0 18.0 0.00 0.00 0.00 84 1014.4
20260906071926 59 270 12.0 19.0 0.00 0.00 0.00 84 1014.4
20260906071433 59 244 10.0 19.0 0.00 0.00 0.00 84 1014.4
20260906070919 59 284 10.0 17.0 0.00 0.00 0.00 84 1014.5
20260906070441 59 280 9.0 17.0 0.00 0.00 0.00 84 1014.5
20260906065941 59 299 10.0 18.0 0.00 0.00 0.00 84 1014.5
20260906065455 59 276 12.0 18.0 0.00 0.00 0.00 84 1014.5
20260906064920 59 359 10.0 17.0 0.00 0.00 0.00 84 1014.5
20260906064424 59 271 9.0 16.0 0.00 0.00 0.00 83 1014.6
20260906063933 60 247 9.0 17.0 0.00 0.00 0.00 83 1014.5
20260906063419 60 270 8.0 17.0 0.00 0.00 0.00 83 1014.6
20260906062920 60 249 9.0 15.0 0.00 0.00 0.00 83 1014.6
20260906062426 60 249 9.0 15.0 0.00 0.00 0.00 83 1014.6
20260906061931 60 264 7.0 15.0 0.00 0.00 0.00 83 1014.7
20260906061419 60 275 7.0 15.0 0.00 0.00 0.00 83 1014.8
20260906060945 60 247 9.0 16.0 0.00 0.00 0.00 83 1014.8
20260906060431 60 257 10.0 16.0 0.00 0.00 0.00 83 1014.8
20260906055931 60 263 7.0 18.0 0.00 0.00 0.00 83 1014.9
20260906055419 60 263 8.0 13.0 0.00 0.00 0.00 82 1014.8
20260906054954 60 264 7.0 12.0 0.00 0.00 0.00 82 1014.9
20260906054419 60 227 6.0 13.0 0.00 0.00 0.00 82 1014.9
20260906053927 60 219 7.0 13.0 0.00 0.00 0.00 82 1014.9
20260906053435 60 280 5.0 11.0 0.00 0.00 0.00 82 1015.0
20260906052920 60 268 5.0 10.0 0.00 0.00 0.00 81 1015.0
20260906052447 60 268 2.0 9.0 0.00 0.00 0.00 81 1015.1
20260906051932 60 226 3.0 10.0 0.00 0.00 0.00 81 1015.0
20260906051420 60 257 5.0 10.0 0.00 0.00 0.00 81 1015.1
20260906050929 60 256 4.0 13.0 0.00 0.00 0.00 81 1015.1
20260906050434 61 240 6.0 15.0 0.00 0.00 0.00 81 1015.0
20260906045917 61 296 5.0 15.0 0.00 0.00 0.00 80 1015.0
20260906045424 61 256 8.0 14.0 0.00 0.00 0.00 80 1015.0
20260906044929 61 264 5.0 10.0 0.00 0.00 0.00 80 1015.0
20260906044431 61 298 4.0 10.0 0.00 0.00 0.00 80 1015.0
20260906043919 61 226 5.0 9.0 0.00 0.00 0.00 79 1015.0
20260906043424 61 222 5.0 10.0 0.00 0.00 0.00 79 1014.9
20260906042930 61 253 6.0 10.0 0.00 0.00 0.00 80 1014.9
20260906042417 61 226 5.0 11.0 0.00 0.00 0.00 80 1014.8
20260906041944 61 285 6.0 11.0 0.00 0.00 0.00 79 1014.7
20260906041443 61 270 7.0 14.0 0.00 0.00 0.00 79 1014.6
20260906040928 61 247 5.0 15.0 0.00 0.00 0.00 79 1014.6
20260906040503 61 292 10.0 14.0 0.00 0.00 0.00 79 1014.6
20260906035918 62 263 7.0 14.0 0.00 0.00 0.00 78 1014.5
20260906035443 62 318 9.0 14.0 0.00 0.00 0.00 78 1014.5
20260906034954 62 268 5.0 9.0 0.00 0.00 0.00 78 1014.4
20260906034436 62 284 5.0 10.0 0.00 0.00 0.00 78 1014.4
20260906033944 62 304 4.0 7.0 0.00 0.00 0.00 79 1014.2
20260906033425 62 301 3.0 9.0 0.00 0.00 0.00 79 1014.1
20260906032930 62 284 4.0 9.0 0.00 0.00 0.00 79 1014.2
20260906032434 62 330 3.0 9.0 0.00 0.00 0.00 79 1014.2
20260906031930 62 19 3.0 10.0 0.00 0.00 0.00 79 1014.2
20260906031431 62 283 4.0 13.0 0.00 0.00 0.00 79 1014.0
20260906030919 62 275 6.0 18.0 0.00 0.00 0.00 79 1013.9
20260906030423 62 322 8.0 18.0 0.00 0.00 0.00 79 1013.9
20260906025930 62 278 7.0 12.0 0.00 0.00 0.00 79 1013.8
20260906025417 62 275 8.0 16.0 0.00 0.00 0.00 79 1013.8
20260906024917 62 278 9.0 16.0 0.00 0.00 0.00 78 1013.8
20260906024438 62 298 7.0 15.0 0.00 0.00 0.00 78 1013.8
20260906023946 63 263 8.0 15.0 0.00 0.00 0.00 78 1014.0
20260906023430 63 270 8.0 15.0 0.00 0.00 0.00 77 1014.1
20260906022936 63 292 6.0 13.0 0.00 0.00 0.00 77 1014.1
20260906022443 63 301 7.0 16.0 0.00 0.00 0.00 76 1013.9
20260906021929 63 275 8.0 16.0 0.00 0.00 0.00 75 1013.9
20260906021416 63 265 8.0 23.0 0.00 0.00 0.00 75 1013.9
20260906020920 63 289 11.0 23.0 0.00 0.00 0.00 74 1013.9
20260906020443 64 277 10.0 19.0 0.00 0.00 0.00 74 1013.8
20260906015954 64 305 10.0 18.0 0.00 0.00 0.00 74 1013.9
20260906015420 64 239 10.0 21.0 0.00 0.00 0.00 73 1014.0
20260906014922 64 291 10.0 20.0 0.00 0.00 0.00 73 1014.1
20260906014429 64 302 10.0 21.0 0.00 0.00 0.00 73 1014.2
20260906013926 64 306 10.0 21.0 0.00 0.00 0.00 73 1014.1
20260906013429 64 292 12.0 21.0 0.00 0.00 0.00 73 1014.1
20260906012934 65 284 11.0 20.0 0.00 0.00 0.00 72 1014.0
20260906012441 64 338 12.0 24.0 0.00 0.00 0.00 73 1014.0
20260906011926 64 283 12.0 24.0 0.00 0.00 0.00 73 1014.0
20260906011432 64 277 15.0 26.0 0.00 0.00 0.00 73 1014.0
20260906010919 65 281 17.0 26.0 0.00 0.00 0.00 72 1014.0
20260906010419 65 282 13.0 24.0 0.00 0.00 0.00 72 1014.0
20260906005921 66 261 14.0 24.0 0.00 0.00 0.00 71 1014.0
20260906005427 66 285 11.0 23.0 0.00 0.00 0.00 71 1014.1
20260906004930 66 276 15.0 23.0 0.00 0.00 0.00 71 1014.1
20260906004433 66 304 12.0 21.0 0.00 0.00 0.00 71 1014.1
20260906003919 66 304 11.0 22.0 0.00 0.00 0.00 71 1014.2
20260906003443 65 265 13.0 22.0 0.00 0.00 0.00 71 1014.2
20260906002925 66 259 12.0 21.0 0.00 0.00 0.00 70 1014.2
20260906002434 67 281 10.0 21.0 0.00 0.00 0.00 69 1014.2
20260906001939 67 270 11.0 20.0 0.00 0.00 0.00 69 1014.3
20260906001456 67 301 10.0 20.0 0.00 0.00 0.00 69 1014.3
20260906000922 67 280 10.0 20.0 0.00 0.00 0.00 68 1014.3
20260906000430 67 294 12.0 20.0 0.00 0.00 0.00 68 1014.2
20260905235930 67 287 13.0 21.0 0.00 0.00 0.00 68 1014.3
20260905235420 67 268 9.0 21.0 0.00 0.00 0.00 69 1014.3
20260905234929 67 280 9.0 19.0 0.00 0.00 0.00 69 1014.5
20260905234435 67 277 10.0 18.0 0.00 0.00 0.00 69 1014.4
20260905233923 66 293 11.0 17.0 0.00 0.00 0.00 69 1014.5
20260905233428 66 303 11.0 22.0 0.00 0.00 0.00 70 1014.6
20260905232931 66 282 13.0 22.0 0.00 0.00 0.00 70 1014.7
20260905232418 66 278 11.0 18.0 0.00 0.00 0.00 71 1014.7
20260905231921 66 289 10.0 23.0 0.00 0.00 0.00 72 1014.8
20260905231431 66 272 9.0 23.0 0.00 0.00 0.00 72 1014.9
20260905230918 66 267 8.0 19.0 0.00 0.00 0.00 73 1014.9
20260905230425 66 245 8.0 19.0 0.00 0.00 0.00 73 1015.0
20260905225932 66 275 12.0 22.0 0.00 0.00 0.00 72 1014.9
20260905225419 66 275 9.0 23.0 0.00 0.00 0.00 72 1014.9
20260905224921 67 257 13.0 23.0 0.00 0.00 0.00 71 1014.8
20260905224424 67 286 11.0 21.0 0.00 0.00 0.00 70 1014.8
20260905223930 67 284 7.0 21.0 0.00 0.00 0.00 70 1014.8
20260905223435 68 299 12.0 20.0 0.00 0.00 0.00 69 1014.7
20260905222922 68 268 12.0 20.0 0.00 0.00 0.00 68 1014.7
20260905222427 69 280 9.0 15.0 0.00 0.00 0.00 68 1014.7
20260905221936 69 258 9.0 20.0 0.00 0.00 0.00 67 1014.7
20260905221424 69 240 12.0 20.0 0.00 0.00 0.00 66 1014.6
20260905220933 68 263 10.0 19.0 0.00 0.00 0.00 69 1014.7
20260905220417 67 287 10.0 24.0 0.00 0.00 0.00 70 1014.6
20260905215944 67 275 15.0 24.0 0.00 0.00 0.00 71 1014.6
20260905215431 66 268 17.0 26.0 0.00 0.00 0.00 71 1014.6
20260905214917 66 290 17.0 26.0 0.00 0.00 0.00 71 1014.8
20260905214441 67 275 16.0 26.0 0.00 0.00 0.00 71 1014.8
20260905213926 67 278 19.0 26.0 0.00 0.00 0.00 70 1014.9
20260905213427 68 287 14.0 22.0 0.00 0.00 0.00 70 1014.7
20260905212933 68 261 12.0 20.0 0.00 0.00 0.00 70 1014.7
20260905212441 68 278 11.0 22.0 0.00 0.00 0.00 70 1014.7
20260905211928 68 271 12.0 22.0 0.00 0.00 0.00 70 1014.8
20260905211435 68 261 13.0 21.0 0.00 0.00 0.00 69 1014.8
20260905210924 68 277 14.0 20.0 0.00 0.00 0.00 68 1014.8
20260905210427 68 277 12.0 20.0 0.00 0.00 0.00 67 1014.9
20260905205930 68 237 11.0 21.0 0.00 0.00 0.00 67 1015.0
20260905205418 68 258 13.0 22.0 0.00 0.00 0.00 66 1014.8
20260905204924 68 285 14.0 22.0 0.00 0.00 0.00 67 1014.9
20260905204429 68 284 15.0 22.0 0.00 0.00 0.00 67 1014.8
20260905203936 69 273 10.0 21.0 0.00 0.00 0.00 66 1014.7
20260905203453 69 284 15.0 21.0 0.00 0.00 0.00 65 1014.8
20260905202938 69 271 9.0 21.0 0.00 0.00 0.00 64 1014.8
20260905202420 70 219 10.0 21.0 0.00 0.00 0.00 63 1014.8
20260905201927 70 278 9.0 20.0 0.00 0.00 0.00 61 1014.7
20260905201434 70 230 9.0 16.0 0.00 0.00 0.00 60 1014.6
20260905200919 70 282 5.0 16.0 0.00 0.00 0.00 64 1014.7
20260905200427 69 268 8.0 16.0 0.00 0.00 0.00 65 1014.9
20260905195932 69 304 7.0 16.0 0.00 0.00 0.00 65 1014.9
20260905195419 69 290 5.0 12.0 0.00 0.00 0.00 65 1015.0
20260905194925 69 321 6.0 12.0 0.00 0.00 0.00 66 1015.0
20260905194426 69 299 6.0 10.0 0.00 0.00 0.00 67 1015.0
20260905193932 69 17 4.0 12.0 0.00 0.00 0.00 68 1015.2
20260905193440 68 248 7.0 12.0 0.00 0.00 0.00 68 1015.2
20260905192924 69 277 7.0 12.0 0.00 0.00 0.00 67 1015.3
20260905192429 69 322 7.0 12.0 0.00 0.00 0.00 67 1015.2
20260905191917 68 206 5.0 11.0 0.00 0.00 0.00 68 1015.3
20260905191440 68 264 7.0 12.0 0.00 0.00 0.00 68 1015.3
20260905190927 69 233 8.0 14.0 0.00 0.00 0.00 69 1015.2
20260905190436 68 224 5.0 14.0 0.00 0.00 0.00 69 1015.4
20260905185932 69 304 8.0 14.0 0.00 0.00 0.00 69 1015.3
20260905185418 69 280 8.0 14.0 0.00 0.00 0.00 68 1015.3
20260905184923 69 264 7.0 13.0 0.00 0.00 0.00 68 1015.2
20260905184431 69 247 5.0 11.0 0.00 0.00 0.00 68 1015.1
20260905183935 69 263 7.0 10.0 0.00 0.00 0.00 67 1015.2
20260905183449 70 245 5.0 10.0 0.00 0.00 0.00 68 1015.2
20260905182933 70 240 4.0 10.0 0.00 0.00 0.00 68 1015.3
20260905182418 70 294 4.0 9.0 0.00 0.00 0.00 68 1015.2
20260905181923 69 277 3.0 9.0 0.00 0.00 0.00 69 1015.3
20260905181431 69 14 3.0 6.0 0.00 0.00 0.00 69 1015.3
20260905180937 69 259 3.0 8.0 0.00 0.00 0.00 69 1015.3
20260905180422 69 299 4.0 8.0 0.00 0.00 0.00 69 1015.3
20260905175941 69 1 1.0 7.0 0.00 0.00 0.00 70 1015.2
20260905175426 68 147 3.0 7.0 0.00 0.00 0.00 70 1015.2
20260905174933 68 323 3.0 7.0 0.00 0.00 0.00 70 1015.1
20260905174418 68 259 2.0 4.0 0.00 0.00 0.00 71 1015.2
20260905173921 67 339 2.0 5.0 0.00 0.00 0.00 72 1015.1
20260905173424 66 333 2.0 6.0 0.00 0.00 0.00 72 1015.1
20260905172921 66 308 4.0 6.0 0.00 0.00 0.00 71 1015.1
20260905172426 67 360 2.0 6.0 0.00 0.00 0.00 72 1015.1
20260905171930 66 276 4.0 7.0 0.00 0.00 0.00 72 1014.9
20260905171436 67 329 3.0 7.0 0.00 0.00 0.00 72 1015.0
20260905170942 66 151 3.0 7.0 0.00 0.00 0.00 72 1015.0
20260905170429 67 249 4.0 6.0 0.00 0.00 0.00 72 1014.9
20260905165934 67 257 3.0 5.0 0.00 0.00 0.00 72 1014.9
20260905165434 67 151 2.0 4.0 0.00 0.00 0.00 72 1014.8
20260905164919 66 95 3.0 4.0 0.00 0.00 0.00 73 1014.8
20260905164424 66 88 2.0 4.0 0.00 0.00 0.00 73 1014.8
20260905163930 65 352 2.0 4.0 0.00 0.00 0.00 74 1014.8
20260905163435 65 151 2.0 5.0 0.00 0.00 0.00 75 1014.7
20260905162920 64 151 2.0 5.0 0.00 0.00 0.00 75 1014.7
20260905162428 64 207 1.0 4.0 0.00 0.00 0.00 76 1014.7
20260905161932 64 202 2.0 4.0 0.00 0.00 0.00 76 1014.6
20260905161449 64 222 2.0 4.0 0.00 0.00 0.00 78 1014.7
20260905160933 64 78 2.0 3.0 0.00 0.00 0.00 80 1014.6
20260905160420 63 55 2.0 4.0 0.00 0.00 0.00 81 1014.6
20260905155925 63 156 2.0 4.0 0.00 0.00 0.00 82 1014.6
20260905155430 62 212 2.0 5.0 0.00 0.00 0.00 83 1014.6
20260905154936 62 151 3.0 5.0 0.00 0.00 0.00 84 1014.6
20260905154421 61 177 2.0 4.0 0.00 0.00 0.00 84 1014.8
20260905153921 61 212 2.0 4.0 0.00 0.00 0.00 85 1014.8
20260905153427 61 177 2.0 5.0 0.00 0.00 0.00 85 1014.9
20260905152931 61 194 3.0 5.0 0.00 0.00 0.00 85 1014.8
20260905152433 61 228 2.0 5.0 0.00 0.00 0.00 85 1014.9
20260905151938 61 222 2.0 4.0 0.00 0.00 0.00 86 1014.8
20260905151452 60 107 1.0 4.0 0.00 0.00 0.00 86 1014.8
20260905150932 61 214 1.0 3.0 0.00 0.00 0.00 86 1014.8
20260905150434 60 158 1.0 3.0 0.00 0.00 0.00 87 1014.7
20260905145936 60 200 1.0 2.0 0.00 0.00 0.00 87 1014.7
20260905145419 59 123 1.0 1.0 0.00 0.00 0.00 87 1014.7
20260905144943 59 134 0.0 2.0 0.00 0.00 0.00 87 1014.6
20260905144427 59 62 1.0 2.0 0.00 0.00 0.00 87 1014.6
20260905143930 59 88 2.0 2.0 0.00 0.00 0.00 87 1014.7
20260905143430 58 97 1.0 2.0 0.00 0.00 0.00 87 1014.6
20260905142933 58 151 1.0 3.0 0.00 0.00 0.00 87 1014.6
20260905142449 58 208 2.0 3.0 0.00 0.00 0.00 87 1014.6
20260905141933 57 194 2.0 4.0 0.00 0.00 0.00 87 1014.6
20260905141439 57 177 2.0 5.0 0.00 0.00 0.00 87 1014.5
20260905140953 57 201 3.0 5.0 0.00 0.00 0.00 87 1014.5
20260905140418 57 208 3.0 5.0 0.00 0.00 0.00 87 1014.4
20260905135936 57 192 2.0 4.0 0.00 0.00 0.00 87 1014.4
20260905135422 57 205 2.0 4.0 0.00 0.00 0.00 87 1014.3
20260905134926 57 196 2.0 4.0 0.00 0.00 0.00 87 1014.2
20260905134433 57 192 2.0 4.0 0.00 0.00 0.00 87 1014.2
20260905133940 57 192 2.0 3.0 0.00 0.00 0.00 87 1014.2
20260905133424 57 205 1.0 2.0 0.00 0.00 0.00 87 1014.1
20260905132928 57 45 0.0 2.0 0.00 0.00 0.00 87 1014.1
20260905132436 57 196 1.0 4.0 0.00 0.00 0.00 87 1014.1
20260905131951 57 185 2.0 4.0 0.00 0.00 0.00 86 1014.1
20260905131434 57 177 1.0 4.0 0.00 0.00 0.00 86 1014.1
20260905130931 57 208 2.0 4.0 0.00 0.00 0.00 86 1014.1
20260905130418 57 193 2.0 4.0 0.00 0.00 0.00 86 1014.2
20260905125921 57 200 2.0 4.0 0.00 0.00 0.00 86 1014.2
20260905125424 57 222 0.0 2.0 0.00 0.00 0.00 86 1014.2
20260905124928 57 88 1.0 2.0 0.00 0.00 0.00 86 1014.3
20260905124434 57 222 1.0 2.0 0.00 0.00 0.00 86 1014.3
20260905123921 57 88 1.0 2.0 0.00 0.00 0.00 86 1014.3
20260905123446 57 116 1.0 3.0 0.00 0.00 0.00 86 1014.2
20260905122931 58 192 1.0 3.0 0.00 0.00 0.00 86 1014.2
20260905122436 58 201 2.0 3.0 0.00 0.00 0.00 86 1014.2
20260905121938 57 232 2.0 3.0 0.00 0.00 0.00 86 1014.2
20260905121453 58 210 2.0 3.0 0.00 0.00 0.00 86 1014.3
20260905120935 58 187 2.0 3.0 0.00 0.00 0.00 85 1014.3
20260905120420 58 218 2.0 2.0 0.00 0.00 0.00 85 1014.2
20260905115955 58 222 1.0 3.0 0.00 0.00 0.00 86 1014.3
20260905115440 58 120 2.0 3.0 0.00 0.00 0.00 86 1014.2
20260905114954 58 144 2.0 3.0 0.00 0.00 0.00 86 1014.3
20260905114446 58 125 2.0 3.0 0.00 0.00 0.00 85 1014.3
20260905113931 58 147 2.0 3.0 0.00 0.00 0.00 85 1014.3
20260905113419 58 134 3.0 4.0 0.00 0.00 0.00 85 1014.3
20260905112924 58 141 2.0 4.0 0.00 0.00 0.00 85 1014.3
20260905112431 58 155 2.0 3.0 0.00 0.00 0.00 85 1014.3
20260905111917 59 130 2.0 3.0 0.00 0.00 0.00 85 1014.4
20260905111425 59 45 1.0 3.0 0.00 0.00 0.00 85 1014.4
20260905110947 59 88 1.0 5.0 0.00 0.00 0.00 85 1014.4
20260905110434 59 218 1.0 5.0 0.00 0.00 0.00 85 1014.3
20260905105917 59 228 2.0 7.0 0.00 0.00 0.00 85 1014.3
20260905105423 59 247 4.0 7.0 0.00 0.00 0.00 85 1014.4
20260905104929 59 254 3.0 7.0 0.00 0.00 0.00 85 1014.3
20260905104418 59 258 2.0 3.0 0.00 0.00 0.00 85 1014.3
20260905103924 59 151 1.0 4.0 0.00 0.00 0.00 85 1014.3
20260905103428 59 116 3.0 4.0 0.00 0.00 0.00 85 1014.3
20260905102934 59 151 1.0 4.0 0.00 0.00 0.00 84 1014.3
20260905102419 59 339 2.0 4.0 0.00 0.00 0.00 84 1014.3
20260905101927 59 45 1.0 5.0 0.00 0.00 0.00 85 1014.4
20260905101432 59 285 2.0 8.0 0.00 0.00 0.00 85 1014.4
20260905100941 59 282 3.0 8.0 0.00 0.00 0.00 85 1014.4
20260905100458 60 214 2.0 9.0 0.00 0.00 0.00 84 1014.3
20260905095926 60 257 4.0 10.0 0.00 0.00 0.00 84 1014.3
20260905095431 60 273 5.0 10.0 0.00 0.00 0.00 84 1014.3
20260905094921 60 251 5.0 9.0 0.00 0.00 0.00 84 1014.3
20260905094427 60 282 5.0 9.0 0.00 0.00 0.00 84 1014.3
20260905093935 60 268 5.0 12.0 0.00 0.00 0.00 84 1014.2
20260905093421 60 258 6.0 12.0 0.00 0.00 0.00 84 1014.2
20260905092927 60 301 5.0 10.0 0.00 0.00 0.00 84 1014.3
20260905092435 60 261 4.0 9.0 0.00 0.00 0.00 84 1014.3
20260905091937 60 237 4.0 10.0 0.00 0.00 0.00 84 1014.4
20260905091424 60 232 6.0 12.0 0.00 0.00 0.00 85 1014.4
20260905090931 60 273 6.0 14.0 0.00 0.00 0.00 85 1014.4
20260905090418 60 256 8.0 14.0 0.00 0.00 0.00 85 1014.5
20260905085922 60 292 8.0 14.0 0.00 0.00 0.00 86 1014.4
20260905085431 60 271 8.0 14.0 0.00 0.00 0.00 86 1014.5
20260905084939 60 217 8.0 14.0 0.00 0.00 0.00 86 1014.5
20260905084450 60 282 8.0 15.0 0.00 0.00 0.00 86 1014.5
20260905083918 60 292 8.0 15.0 0.00 0.00 0.00 85 1014.5
20260905083446 60 268 8.0 15.0 0.00 0.00 0.00 85 1014.6
20260905082931 60 270 9.0 15.0 0.00 0.00 0.00 85 1014.5
20260905082438 60 289 9.0 16.0 0.00 0.00 0.00 85 1014.6
20260905081953 60 280 9.0 16.0 0.00 0.00 0.00 85 1014.6
20260905081417 60 268 9.0 17.0 0.00 0.00 0.00 85 1014.5
20260905080921 60 292 10.0 17.0 0.00 0.00 0.00 85 1014.4
20260905080427 60 218 8.0 16.0 0.00 0.00 0.00 85 1014.5
20260905075930 60 252 10.0 16.0 0.00 0.00 0.00 85 1014.4
20260905075418 60 238 9.0 15.0 0.00 0.00 0.00 84 1014.4
20260905074926 60 294 9.0 15.0 0.00 0.00 0.00 84 1014.5
20260905074431 60 254 7.0 15.0 0.00 0.00 0.00 83 1014.4